Regional Weather Roundup
Issued by NWS Midland/Odessa, TX

Skip options and go directly to product.
Home | Oldest Version | Previous Version | Current Version | All | Text Only | Save Text | Print | Product List | Glossary On

Skip product version selection by date and time.   
008
ASUS44 KMAF 020910
RWRMAF
MIDLAND AREA WEATHER ROUNDUP
NATIONAL WEATHER SERVICE MIDLAND TX
400 AM CDT SAT JUL 02 2016

...IN SOUTHWEST TEXAS AND SOUTHEAST NEW MEXICO...

CITY           SKY/WX    TMP DP  RH WIND       PRES   REMARKS
ALPINE         CLOUDY    73  60  63 SW6       30.19S
ANDREWS        FAIR      75  60  59 S7        30.03F
ARTESIA        MOCLDY    73  61  64 S5        30.03S
BIG SPRING     CLEAR     75  62  64 SE10      30.03S
CARLSBAD       CLOUDY    73  67  81 W7        30.00S
DRYDEN           N/A     80  67  64 SE9       29.99F
FORT STOCKTON  CLOUDY    79  62  56 S20G29    30.02S
GUAD PASS      CLOUDY    64  61  90 SW20      30.17F
HOBBS          PTCLDY    77  57  50 S10       30.05F
MARFA          CLOUDY   N/A N/A N/A CALM      30.18S
MIDLAND AIRPK  CLEAR     78  62  58 S12       30.02F
MIDLAND INTL   CLEAR     78  62  57 S13       30.02F
ODESSA         CLEAR     78  61  55 S12       30.03F
PECOS          CLOUDY    74  69  82 SE5       29.99F
PRESIDIO       CLOUDY    78  65  65 S3        30.06S
SEMINOLE       CLEAR     71  58  61 SE5       30.04F
SNYDER           N/A     74  62  65 SE10      30.02S
WINK           MOCLDY    80  63  55 S9        29.99S
$$
...OTHER STATIONS IN TEXAS...

CITY           SKY/WX    TMP DP  RH WIND       PRES   REMARKS
ABILENE        CLEAR     75  65  70 S13       30.00F
AMARILLO       CLOUDY    72  59  63 S18       30.03S
AUSTIN         PTCLDY    76  73  91 CALM      30.00F
BROWNSVILLE    PTCLDY    80  77  90 S6        29.98F
CORPUS CHRISTI PTCLDY    79  77  94 S7        29.97F
DALLAS FTW     PTCLDY    82  70  66 S10       29.97S
DEL RIO        CLEAR     82  71  69 E10       29.94S
EL PASO        MOCLDY    72  63  73 SW12      30.09S
HOUSTON INT    PTCLDY    77  74  90 S3        30.00F
LUBBOCK        PTCLDY    72  58  61 S12       30.02F
SAN ANGELO     PTCLDY    75  65  70 S8        29.99F
SAN ANTONIO    MOCLDY    78  74  87 SE7       30.01F
WACO           CLEAR     80  73  79 S12       29.99F
WICHITA FALLS  NOT AVBL
$$
...OTHER LOCATIONS IN NEW MEXICO...

CITY           SKY/WX    TMP DP  RH WIND       PRES   REMARKS
ALAMAGORDO     PTCLDY    68  61  77 S9        30.09S
ALBUQUERQUE    CLOUDY    64  60  87 SE9       30.14F
CANNON AFB     CLOUDY    75  59  58 S13G21    30.05F
CLOVIS         CLOUDY    72  57  60 S13       30.05F
HOLLOMAN AFB   PTCLDY    69  62  77 S9        30.07S
ROSWELL        CLOUDY    77  57  50 S8        30.02F
RUIDOSO          N/A     59  50  72 W6        30.24F
SANTA FE       CLOUDY    61  58  90 CALM      30.19F
TRUTH OR CONSE CLEAR     64  60  87 SW6       30.12F
TUCUMCARI      MOCLDY    75  55  49 W8        30.03F
$$

USA.gov is the U.S. government's official web portal to all federal, state and local government web resources and services.